Bankhead Lake Weather Center

Moon Phase Calendar



Bankhead Lake Water Level
Online Cameras

 


      

Current Conditions in Rock Creek
6/20/2024 8:00:53 AM

78°F
Feels Like 78
Clear
Humidity
67%
Pressure
30.24"
Wind
8.6 mph (E)
Dew Point
66°F
UV Index
2/10 (Low)
Visibility
6 mi

Hourly Forecast

Date & Time Thu, Jun 20
8:00 AM
Thu, Jun 20
9:00 AM
Thu, Jun 20
10:00 AM
Thu, Jun 20
11:00 AM
Thu, Jun 20
12:00 PM
Thu, Jun 20
1:00 PM
Thu, Jun 20
2:00 PM
Thu, Jun 20
3:00 PM
Thu, Jun 20
4:00 PM
Thu, Jun 20
5:00 PM
Thu, Jun 20
6:00 PM
Thu, Jun 20
7:00 PM
Thu, Jun 20
8:00 PM
Thu, Jun 20
9:00 PM
Thu, Jun 20
10:00 PM
Thu, Jun 20
11:00 PM
Fri, Jun 21
12:00 AM
Fri, Jun 21
1:00 AM
Fri, Jun 21
2:00 AM
Fri, Jun 21
3:00 AM
Fri, Jun 21
4:00 AM
Fri, Jun 21
5:00 AM
Fri, Jun 21
6:00 AM
Fri, Jun 21
7:00 AM
Fri, Jun 21
8:00 AM
Fri, Jun 21
9:00 AM
Fri, Jun 21
10:00 AM
Fri, Jun 21
11:00 AM
Fri, Jun 21
12:00 PM
Fri, Jun 21
1:00 PM
Fri, Jun 21
2:00 PM
Fri, Jun 21
3:00 PM
Fri, Jun 21
4:00 PM
Fri, Jun 21
5:00 PM
Fri, Jun 21
6:00 PM
Fri, Jun 21
7:00 PM
Fri, Jun 21
8:00 PM
Fri, Jun 21
9:00 PM
Fri, Jun 21
10:00 PM
Fri, Jun 21
11:00 PM
Sat, Jun 22
12:00 AM
Sat, Jun 22
1:00 AM
Sat, Jun 22
2:00 AM
Sat, Jun 22
3:00 AM
Sat, Jun 22
4:00 AM
Sat, Jun 22
5:00 AM
Sat, Jun 22
6:00 AM
Sat, Jun 22
7:00 AM
Condition
Clear

Clear

Clear

Clear

Clear

Clear

Clear

Clear

Clear

Clear

Clear

Clear

Clear

Clear

Clouds

Clouds

Clouds

Clouds

Clouds

Clouds

Clouds

Clouds

Clouds

Clouds

Clouds

Clouds

Clouds

Clouds

Clouds

Clouds

Clouds

Clouds

Clouds

Clouds

Clouds

Clouds

Clouds

Clouds

Clouds

Clouds

Clouds

Clouds

Clouds

Clouds

Clouds

Clouds

Clouds

Clouds
Temperature 78°F78°F80°F83°F87°F92°F93°F93°F93°F93°F91°F85°F78°F76°F75°F74°F73°F72°F72°F71°F71°F70°F69°F72°F78°F83°F87°F90°F93°F96°F97°F97°F96°F95°F87°F85°F83°F82°F81°F78°F75°F75°F74°F73°F71°F70°F69°F72°F
Feels Like 78°F79°F82°F84°F87°F90°F91°F92°F92°F91°F92°F87°F78°F76°F75°F74°F73°F72°F72°F71°F71°F70°F69°F72°F78°F84°F88°F91°F94°F96°F96°F96°F96°F95°F89°F86°F85°F84°F83°F79°F76°F76°F75°F73°F71°F70°F69°F72°F
Cloudiness 1%1%1%2%2%2%0%0%0%0%0%0%2%3%11%23%18%32%100%84%58%69%75%79%94%51%35%27%22%21%99%100%99%99%99%99%100%100%100%90%73%63%90%94%92%95%96%90%
Visibility 6 mi6 mi6 mi6 mi6 mi6 mi6 mi6 mi6 mi6 mi6 mi6 mi6 mi6 mi6 mi6 mi6 mi6 mi6 mi6 mi6 mi6 mi6 mi6 mi6 mi6 mi6 mi6 mi6 mi6 mi6 mi6 mi6 mi6 mi6 mi6 mi6 mi6 mi6 mi6 mi6 mi6 mi6 mi6 mi6 mi6 mi6 mi6 mi
Precipitation 0%0%0%0%0%0%0%0%0%0%0%0%0%0%0%0%0%0%0%0%0%0%0%0%0%0%0%0%0%0%0%0%0%0%0%0%0%0%0%0%0%0%0%0%0%0%0%0%
Humidity 67%64%58%50%40%30%29%29%30%30%39%55%59%62%64%66%68%69%65%65%66%67%70%72%60%52%46%40%36%32%29%28%30%31%46%51%52%54%57%64%70%71%73%74%71%70%71%71%
Dew Point 66°F65°F64°F63°F60°F56°F56°F56°F57°F57°F63°F66°F62°F62°F61°F61°F61°F61°F60°F59°F58°F58°F59°F62°F62°F63°F63°F62°F62°F62°F60°F59°F59°F60°F64°F64°F64°F64°F64°F65°F65°F65°F65°F64°F61°F59°F59°F62°F
Pressure 30.24"30.24"30.24"30.24"30.21"30.21"30.18"30.15"30.15"30.12"30.12"30.12"30.15"30.15"30.15"30.15"30.15"30.18"30.18"30.15"30.15"30.18"30.21"30.21"30.21"30.21"30.21"30.18"30.15"30.12"30.09"30.06"30.06"30.03"30.03"30.06"30.06"30.06"30.06"30.09"30.06"30.06"30.06"30.06"30.09"30.09"30.09"30.09"
Wind Speed 8.6 mph10.4 mph10.8 mph10.4 mph9.6 mph8.4 mph7.8 mph7.7 mph6.5 mph5.5 mph3.8 mph2 mph1.4 mph2.5 mph3.4 mph3.4 mph2.5 mph3.2 mph2.3 mph3.8 mph4.1 mph4.2 mph4.5 mph3.2 mph3.8 mph3.6 mph3.4 mph3.8 mph3.5 mph2.6 mph5 mph6.8 mph6.7 mph7.4 mph6.1 mph6.8 mph5.1 mph4.5 mph4.7 mph4.5 mph3.8 mph3.5 mph4.7 mph4.3 mph3.3 mph2.9 mph3.3 mph2.7 mph
Wind
Direction
93°
E
97°
E
99°
E
102°
ESE
108°
ESE
114°
ESE
124°
SE
131°
SE
132°
SE
134°
SE
147°
SSE
153°
SSE
53°
NE
31°
NNE
33°
NNE
35°
NE
48°
NE
130°
SE
143°
SE
133°
SE
139°
SE
145°
SE
126°
SE
123°
ESE
132°
SE
124°
SE
110°
ESE
91°
E
79°
E
27°
NNE
43°
NE
59°
ENE
49°
NE
34°
NE
25°
NNE
41°
NE
35°
NE
51°
NE
69°
ENE
89°
E
84°
E
66°
ENE
118°
ESE
145°
SE
156°
SSE
165°
SSE
162°
SSE
152°
SSE

Daily Forecast

Date High Low Precip. Humidity
Today
Jun 20

Clear
93 °F
68 °F
0%
40%
Friday
Jun 21

Clouds
97 °F
69 °F
0%
36%
Saturday
Jun 22

Clouds
98 °F
69 °F
0%
34%
Sunday
Jun 23

Clouds
96 °F
74 °F
0%
47%
Monday
Jun 24

Rain
98 °F
73 °F
31%
33%
Tuesday
Jun 25

Rain
97 °F
72 °F
100%
39%
Wednesday
Jun 26

Rain
93 °F
70 °F
100%
53%
Thursday
Jun 27

Rain
91 °F
69 °F
100%
38%
Friday
Jun 28

Clouds
96 °F
63 °F
0%
30%
Saturday
Jun 29

Clear
99 °F
71 °F
0%
32%
Sunday
Jun 30

Rain
97 °F
73 °F
100%
38%
Monday
Jul 1

Rain
99 °F
70 °F
100%
35%
Tuesday
Jul 2

Rain
92 °F
69 °F
100%
46%
Wednesday
Jul 3

Rain
88 °F
72 °F
100%
58%
Thursday
Jul 4

Rain
93 °F
71 °F
99%
43%
Friday
Jul 5

Clear
93 °F
72 °F
41%
40%

Temperature 8-14 Day Outlook



Precipitation 8-14 Day Outlook




Quick Links
Bankhead Lake News
Bankhead Lake Photos
Bankhead Lake Videos




About Us
Contact Us
Site Map
Search Site
Advertise With Us
   
www.BankheadLake.info
THE BANKHEAD LAKE WEBSITE

Copyright 2024, Lakes Online
Privacy    |    Legal